[[[{"header":{"parameterUnit":"kt","parameterCategory":2,"dx":1,"dy":1,"la1":30.253999710083008,"la2":30.299108505249023,"lo1":-89.0895004272461,"lo2":-89.04439544677734,"nx":28,"ny":28,"refTime":"2022-10-31T21:00:00:Z","depth":0,"parameterNumber":1,"parameterNumberName":"U-component_of_WINDS"},"data":[2.5545,2.561,2.5619,2.5696,2.5717,2.577,2.5792,2.5821,2.5847,2.5912,2.595,2.5965,2.5993,2.6041,2.6082,2.6088,2.6103,2.612,2.6123,2.6045,2.6035,2.6025,2.6009,2.6124,2.6124,2.62,2.6201,2.6202,2.5484,2.5506,2.555,2.5599,2.5636,2.5626,2.5664,2.5695,2.5743,2.5776,2.5815,2.5872,2.5919,2.5943,2.5988,2.6017,2.6014,2.6029,2.6024,2.6028,2.5947,2.593,2.603,2.603,2.603,2.603,2.603,2.603,2.5375,2.5415,2.5449,2.5497,2.5524,2.5557,2.5595,2.5613,2.5656,2.5706,2.5709,2.5764,2.5797,2.5857,2.588,2.5922,2.5907,2.5925,2.5929,2.5932,2.5934,2.5816,2.5931,2.593,2.593,2.593,2.593,0,2.5297,2.5302,2.5346,2.5391,2.5427,2.5464,2.5499,2.5523,2.5536,2.5571,2.5622,2.5653,2.5714,2.5763,2.5808,2.5828,2.5818,2.582,2.5832,2.5829,2.582,2.5821,2.5684,2.5816,2.5815,2.5814,2.5814,2.5813,2.5184,2.523,2.5272,2.5301,2.5322,2.537,2.54,2.5408,2.5439,2.5483,2.5517,2.5567,2.5607,2.5688,2.5707,2.5753,2.5748,2.5797,2.5755,2.575,2.5744,2.574,2.5743,2.5803,2.5805,2.5806,2.5807,0,2.5119,2.5134,2.5208,2.5244,2.5255,2.5302,2.5333,2.5373,2.5386,2.5442,2.5456,2.5477,2.5527,2.5539,2.56,2.5604,2.5679,2.5676,2.5666,2.5665,2.5707,2.5701,2.5849,2.5867,2.5752,2.5753,2.5754,0,2.5026,2.5087,2.5105,2.5147,2.5214,2.5221,2.5286,2.5304,2.5334,2.5379,2.5372,2.5414,2.5423,2.5467,2.5474,2.5537,2.555,2.5556,2.5556,2.5554,2.5553,2.5568,2.556,2.5561,2.556,2.5559,2.5559,0,2.4919,2.5002,2.5071,2.5092,2.5137,2.5169,2.519,2.5224,2.5253,2.5294,2.5312,2.536,2.5385,2.5421,2.5429,2.54,2.5509,2.547,2.5514,2.5514,2.5535,2.5533,2.5664,2.5558,2.5557,2.5557,2.5557,0,2.4845,2.4887,2.4988,2.5024,2.5045,2.5092,2.5137,2.5181,2.5217,2.5224,2.5257,2.5252,2.5312,2.5272,2.5353,2.5311,2.5336,2.5348,2.5352,2.5354,2.5308,2.5375,2.5502,2.5514,2.5361,2.5359,2.5358,0,2.4717,2.4822,2.4828,2.4924,2.4973,2.496,2.5013,2.5045,2.506,2.5103,2.5119,2.5169,2.5142,2.5159,2.5199,2.5216,2.527,2.521,2.5268,2.527,2.5255,2.5373,2.5387,2.5474,2.5337,2.5339,2.5341,0,2.4618,2.4673,2.469,2.4713,2.4759,2.4801,2.4862,2.4913,2.4941,2.4981,2.5029,2.5103,2.5084,2.5113,2.5115,2.5155,2.5234,2.513,2.5131,2.5144,2.5329,2.5341,2.5356,2.5226,2.5228,2.523,2.5325,0,2.4496,2.4552,2.4599,2.4652,2.4688,2.475,2.4763,2.4798,2.4795,2.4809,2.4883,2.4915,2.4967,2.4989,2.4988,2.5077,2.5063,2.5043,2.5001,2.5081,2.5111,2.5125,2.4954,2.4953,2.4952,2.4951,0,0,2.4366,2.4447,2.4452,2.4511,2.4541,2.4526,2.459,2.4618,2.4674,2.4694,2.4672,2.4779,2.4806,2.4894,2.492,2.4943,2.4959,2.4931,2.5044,2.5054,2.5064,2.5097,2.511,2.495,2.4949,2.4949,2.4949,0,2.4323,2.4353,2.4417,2.4446,2.4488,2.45,2.4515,2.4555,2.4566,2.4641,2.4626,2.4673,2.476,2.4789,2.4814,2.4922,2.4907,2.4938,2.4989,2.5034,2.5046,2.5056,2.5091,2.5103,2.4946,2.4947,2.4947,0,2.4225,2.4255,2.4288,2.4357,2.4385,2.4438,2.4398,2.4457,2.4496,2.4477,2.455,2.457,2.461,2.4694,2.4732,2.4713,2.4859,2.4817,2.4824,2.4827,2.4871,2.4885,2.4897,2.4733,2.4733,2.4732,0,0,2.4186,2.4239,2.4273,2.4349,2.4367,2.4385,2.4416,2.4416,2.4453,2.4468,2.4492,2.4528,2.4578,2.4611,2.4659,2.4751,2.4757,2.479,2.48,2.4809,2.4816,2.4862,2.4876,2.4729,2.4729,2.4729,0,0,2.4167,2.4209,2.42,2.429,2.4326,2.4364,2.4409,2.4399,2.4444,2.4438,2.4442,2.4451,2.453,2.455,2.4508,2.4644,2.4604,2.4614,2.4628,2.4641,2.4651,2.4643,2.447,0,0,0,0,0,2.4129,2.4204,2.4195,2.4212,2.43,2.4369,2.438,2.4384,2.4355,2.439,2.4409,2.4393,2.4527,2.449,2.4507,2.4553,2.469,2.4697,2.4703,2.4742,2.4755,2.4767,0,0,0,0,0,0,2.4136,2.4157,2.4193,2.4234,2.4254,2.4366,2.4317,2.432,2.4351,2.4347,2.439,2.4394,2.4399,2.4482,2.4497,2.4541,2.4465,2.4692,2.4698,2.4703,2.4747,2.4758,2.4767,0,0,0,0,0,2.4141,2.4158,2.4298,2.4233,2.425,2.4274,2.4314,2.4316,2.434,2.4369,2.4373,2.4341,2.44,2.4413,2.4491,2.4534,2.4455,2.4461,2.4696,2.4701,2.4705,2.4752,0,0,0,0,0,0,2.4145,2.4161,2.4301,2.4306,2.4205,2.4268,2.4278,2.4313,2.4361,2.4365,2.432,2.4316,2.4402,2.4412,2.4422,2.4531,2.4447,2.4452,2.4456,2.47,2.4703,2.4707,0,0,0,0,0,0,2.4152,2.4165,2.4304,2.4269,2.427,2.4262,2.4271,2.4338,2.4362,2.4309,2.4307,2.4318,2.4387,2.4411,2.4419,2.4524,2.444,2.4446,2.4449,2.4452,2.4703,2.4705,0,0,0,0,0,0,2.4157,2.4169,2.4267,2.4268,2.4269,2.433,2.4322,2.4411,2.4332,2.4307,2.4325,2.4321,2.4387,2.4395,2.4417,2.4519,2.4522,2.444,2.4444,2.4447,2.4448,0,0,0,0,0,0,0,2.4162,2.4082,2.4269,2.4268,2.4269,2.4356,2.4357,2.4359,2.4331,2.4328,2.4325,2.4323,2.4409,2.4415,2.4421,2.4515,0,0,2.444,2.4442,0,0,0,0,0,0,0,0,2.4077,2.4081,2.427,2.4271,2.4272,2.4356,2.4357,2.4358,2.433,2.4328,2.4326,2.4324,2.4411,2.4416,2.4421,0,0,0,0,0,0,0,0,0,0,0,0,0,0,0,2.427,2.4271,0,2.4356,2.4357,2.4358,2.433,2.4328,2.4326,2.4325,2.4412,2.4416,2.442,0,0,0,0,0,0,0,0,0,0,0,0,0,0,0,0,0,0,0,0,0,0,0,0,0,0,0,0,0,0,0,0,0,0,0,0,0,0,0,0,0,0,0,0,0,0,0,0,0,0,0,0,0,0,0,0,0,0,0,0,0,0,0,0,0,0,0,0,0]}],[{"header":{"parameterUnit":"kt","parameterCategory":2,"dx":1,"dy":1,"la1":30.253999710083008,"la2":30.299108505249023,"lo1":-89.0895004272461,"lo2":-89.04439544677734,"nx":28,"ny":28,"refTime":"2022-10-31T21:00:00:Z","depth":0,"parameterNumber":2,"parameterNumberName":"V-component_of_WINDS"},"data":[-0.327,-0.3354,-0.3437,-0.3571,-0.3669,-0.3777,-0.3842,-0.3936,-0.4033,-0.4172,-0.4268,-0.4363,-0.4495,-0.4632,-0.4743,-0.4784,-0.4826,-0.4793,-0.4847,-0.4912,-0.4927,-0.4941,-0.4927,-0.48,-0.48,-0.477,-0.4769,-0.4769,-0.3309,-0.3406,-0.3501,-0.365,-0.3733,-0.3814,-0.3941,-0.4006,-0.41,-0.422,-0.4319,-0.445,-0.4566,-0.4713,-0.484,-0.4884,-0.4931,-0.4912,-0.4912,-0.4932,-0.5004,-0.4987,-0.4871,-0.4871,-0.4872,-0.4872,-0.4872,-0.4872,-0.3403,-0.3449,-0.3589,-0.3694,-0.3792,-0.3892,-0.3953,-0.4068,-0.4164,-0.4304,-0.4388,-0.4498,-0.4636,-0.4832,-0.4919,-0.501,-0.5047,-0.5055,-0.5057,-0.5057,-0.5046,-0.5082,-0.5035,-0.5036,-0.5036,-0.5037,-0.5037,0,-0.3499,-0.3566,-0.3664,-0.3786,-0.3868,-0.3971,-0.4082,-0.4121,-0.4296,-0.4368,-0.4481,-0.4561,-0.472,-0.4838,-0.4976,-0.5068,-0.5165,-0.5183,-0.519,-0.5152,-0.5099,-0.5131,-0.5245,-0.5185,-0.5187,-0.5188,-0.5189,-0.5189,-0.3603,-0.3647,-0.3834,-0.3892,-0.3973,-0.4063,-0.4135,-0.4286,-0.4357,-0.4516,-0.4551,-0.467,-0.4774,-0.4943,-0.5082,-0.5202,-0.5251,-0.5219,-0.527,-0.5231,-0.5255,-0.5252,-0.5258,-0.5207,-0.5205,-0.5203,-0.5201,0,-0.3654,-0.3793,-0.3889,-0.4072,-0.4119,-0.4158,-0.4317,-0.4371,-0.4479,-0.4569,-0.4599,-0.4769,-0.4878,-0.5024,-0.5179,-0.5252,-0.5324,-0.5367,-0.5277,-0.5294,-0.5282,-0.5282,-0.5213,-0.5214,-0.5343,-0.5342,-0.5341,0,-0.3799,-0.3851,-0.4056,-0.4105,-0.4168,-0.432,-0.4379,-0.4478,-0.46,-0.4673,-0.4804,-0.4869,-0.5046,-0.5133,-0.5241,-0.5325,-0.5353,-0.5416,-0.5444,-0.5406,-0.5398,-0.5449,-0.5456,-0.5504,-0.5504,-0.5505,-0.5505,0,-0.3866,-0.4037,-0.4116,-0.4178,-0.4381,-0.4415,-0.4501,-0.4639,-0.4709,-0.4823,-0.4871,-0.4993,-0.506,-0.5154,-0.5292,-0.5321,-0.5397,-0.5466,-0.5461,-0.5458,-0.5473,-0.547,-0.537,-0.5505,-0.5505,-0.5505,-0.5505,0,-0.4007,-0.4117,-0.4209,-0.4382,-0.4421,-0.4473,-0.4604,-0.4682,-0.4819,-0.4891,-0.4982,-0.5089,-0.5172,-0.5231,-0.5349,-0.5349,-0.5409,-0.5476,-0.5478,-0.5498,-0.556,-0.5487,-0.5374,-0.5369,-0.5511,-0.5511,-0.5511,0,-0.4047,-0.4178,-0.431,-0.4396,-0.4477,-0.4621,-0.4682,-0.4799,-0.4899,-0.4985,-0.5097,-0.5194,-0.5268,-0.532,-0.5358,-0.5479,-0.5479,-0.5483,-0.561,-0.5612,-0.5571,-0.5468,-0.5416,-0.5382,-0.5514,-0.5514,-0.5513,0,-0.4097,-0.4342,-0.4348,-0.4426,-0.4604,-0.4673,-0.4743,-0.4872,-0.4921,-0.5038,-0.5103,-0.5241,-0.5305,-0.5387,-0.5487,-0.552,-0.5484,-0.5584,-0.559,-0.5563,-0.5527,-0.5477,-0.5471,-0.5544,-0.5544,-0.5544,-0.5515,0,-0.4282,-0.4366,-0.4387,-0.4553,-0.4629,-0.4691,-0.4846,-0.4906,-0.4995,-0.5101,-0.5197,-0.5333,-0.5466,-0.5497,-0.5585,-0.5612,-0.5632,-0.5698,-0.5769,-0.5698,-0.5693,-0.5691,-0.5764,-0.5767,-0.5769,-0.5771,0,0,-0.4287,-0.4411,-0.4555,-0.4628,-0.4702,-0.4851,-0.4904,-0.4993,-0.5169,-0.5218,-0.5258,-0.5472,-0.5581,-0.5683,-0.5673,-0.5726,-0.5747,-0.5765,-0.573,-0.5724,-0.572,-0.5711,-0.5706,-0.5776,-0.5777,-0.5777,-0.5778,0,-0.4388,-0.4492,-0.4541,-0.464,-0.4791,-0.4901,-0.4912,-0.5089,-0.516,-0.5255,-0.5379,-0.5456,-0.5623,-0.5724,-0.5796,-0.5756,-0.5848,-0.5784,-0.5711,-0.575,-0.5741,-0.5734,-0.5723,-0.5716,-0.5784,-0.5784,-0.5784,0,-0.4467,-0.4596,-0.4636,-0.4809,-0.491,-0.499,-0.5102,-0.5181,-0.5243,-0.5406,-0.5499,-0.5595,-0.5742,-0.5817,-0.5856,-0.5895,-0.593,-0.5946,-0.5935,-0.5944,-0.5989,-0.5978,-0.5968,-0.6094,-0.6095,-0.6095,0,0,-0.4533,-0.4612,-0.48,-0.4843,-0.4897,-0.5062,-0.512,-0.5215,-0.5343,-0.5393,-0.5521,-0.5642,-0.5742,-0.5804,-0.5905,-0.5964,-0.6009,-0.5978,-0.5963,-0.5951,-0.5952,-0.5994,-0.5983,-0.6097,-0.6097,-0.6097,0,0,-0.4566,-0.4785,-0.4852,-0.4921,-0.5037,-0.5227,-0.5248,-0.5335,-0.5442,-0.5453,-0.562,-0.566,-0.5732,-0.5823,-0.5826,-0.5934,-0.6,-0.6003,-0.5872,-0.5856,-0.5842,-0.582,-0.5962,0,0,0,0,0,-0.475,-0.4758,-0.4816,-0.4851,-0.5072,-0.5193,-0.5223,-0.536,-0.5404,-0.5418,-0.5538,-0.5632,-0.586,-0.5866,-0.5899,-0.5895,-0.6118,-0.6114,-0.611,-0.5957,-0.5938,-0.5923,0,0,0,0,0,0,-0.4765,-0.4806,-0.4817,-0.5004,-0.5055,-0.5195,-0.53,-0.5338,-0.5407,-0.5423,-0.5606,-0.5638,-0.5758,-0.5859,-0.5887,-0.588,-0.5953,-0.6116,-0.6113,-0.611,-0.5951,-0.5935,-0.5922,0,0,0,0,0,-0.4777,-0.4811,-0.5128,-0.5005,-0.5049,-0.5234,-0.5301,-0.5333,-0.5389,-0.5576,-0.5611,-0.5487,-0.5754,-0.5787,-0.5876,-0.5864,-0.5935,-0.5945,-0.6114,-0.6112,-0.6109,-0.5943,0,0,0,0,0,0,-0.4786,-0.4843,-0.514,-0.5159,-0.5012,-0.5229,-0.5267,-0.5329,-0.5541,-0.5575,-0.5465,-0.5475,-0.5752,-0.5778,-0.5802,-0.585,-0.592,-0.593,-0.5937,-0.6112,-0.611,-0.6109,0,0,0,0,0,0,-0.4825,-0.4857,-0.515,-0.5151,-0.5172,-0.5223,-0.5258,-0.5354,-0.5542,-0.5419,-0.5434,-0.5467,-0.5715,-0.5771,-0.5791,-0.5935,-0.5909,-0.5919,-0.5925,-0.5929,-0.6111,-0.6109,0,0,0,0,0,0,-0.4841,-0.4869,-0.5148,-0.5163,-0.5181,-0.5401,-0.5311,-0.553,-0.554,-0.5407,-0.5545,-0.5547,-0.5706,-0.5729,-0.5782,-0.5917,-0.593,-0.5909,-0.5916,-0.592,-0.5923,0,0,0,0,0,0,0,-0.4854,-0.4637,-0.5029,-0.5172,-0.5188,-0.5332,-0.5337,-0.5342,-0.554,-0.5542,-0.5544,-0.5546,-0.5855,-0.5865,-0.5876,-0.5902,0,0,-0.5908,-0.5913,0,0,0,0,0,0,0,0,-0.4629,-0.4635,-0.503,-0.5033,-0.5037,-0.5333,-0.5337,-0.5341,-0.5541,-0.5542,-0.5544,-0.5546,-0.5857,-0.5866,-0.5874,0,0,0,0,0,0,0,0,0,0,0,0,0,0,0,-0.503,-0.5033,0,-0.5333,-0.5337,-0.534,-0.5541,-0.5542,-0.5544,-0.5545,-0.586,-0.5867,-0.5874,0,0,0,0,0,0,0,0,0,0,0,0,0,0,0,0,0,0,0,0,0,0,0,0,0,0,0,0,0,0,0,0,0,0,0,0,0,0,0,0,0,0,0,0,0,0,0,0,0,0,0,0,0,0,0,0,0,0,0,0,0,0,0,0,0,0,0,0,0]}]]]